Time,TemperatureF,DewpointF,PressureIn,WindDirection,WindDirectionDegrees,WindSpeedMPH,WindSpeedGustMPH,Humidity,HourlyPrecipIn,Conditions,Clouds,dailyrainin,SoftwareType,DateUTC
2013-06-14 00:00:00,61.6,52.5,29.91,North,6,0.0,0.0,72,0.00,,CLR,0.00,VWS V14.00,2013-06-14 07:00:00,
2013-06-14 00:02:00,61.4,52.7,29.91,North,6,0.0,0.0,73,0.00,,CLR,0.00,VWS V14.00,2013-06-14 07:02:00,
2013-06-14 00:07:00,61.2,52.5,29.91,North,6,0.0,0.0,73,0.00,,CLR,0.00,VWS V14.00,2013-06-14 07:07:00,
2013-06-14 00:12:00,61.2,52.1,29.91,North,6,0.0,0.0,72,0.00,,CLR,0.00,VWS V14.00,2013-06-14 07:12:00,
2013-06-14 00:17:00,61.1,51.6,29.90,North,6,0.0,0.0,71,0.00,,CLR,0.00,VWS V14.00,2013-06-14 07:17:00,
2013-06-14 00:22:00,60.8,51.0,29.91,North,6,0.0,0.0,70,0.00,,CLR,0.00,VWS V14.00,2013-06-14 07:22:00,
2013-06-14 00:27:00,60.7,50.9,29.91,North,6,0.0,0.0,70,0.00,,CLR,0.00,VWS V14.00,2013-06-14 07:27:00,
2013-06-14 00:30:00,60.6,51.2,29.90,North,6,0.0,0.0,71,0.00,,CLR,0.00,VWS V14.00,2013-06-14 07:30:00,
2013-06-14 00:32:00,60.4,50.6,29.90,North,6,0.0,0.0,70,0.00,,CLR,0.00,VWS V14.00,2013-06-14 07:32:00,
2013-06-14 00:37:00,60.3,50.1,29.90,North,6,0.0,0.0,69,0.00,,CLR,0.00,VWS V14.00,2013-06-14 07:37:00,
2013-06-14 00:42:00,60.1,49.5,29.90,North,6,0.0,0.0,68,0.00,,CLR,0.00,VWS V14.00,2013-06-14 07:42:00,
2013-06-14 00:47:00,60.1,49.9,29.91,North,6,0.0,0.0,69,0.00,,CLR,0.00,VWS V14.00,2013-06-14 07:47:00,
2013-06-14 00:52:00,59.8,49.6,29.90,North,6,0.0,0.0,69,0.00,,CLR,0.00,VWS V14.00,2013-06-14 07:52:00,
2013-06-14 00:57:00,60.0,50.2,29.90,North,6,0.0,0.0,70,0.00,,CLR,0.00,VWS V14.00,2013-06-14 07:57:00,
2013-06-14 01:00:00,60.0,49.8,29.90,North,6,0.0,0.0,69,0.00,,CLR,0.00,VWS V14.00,2013-06-14 08:00:00,
2013-06-14 01:02:00,59.7,49.9,29.90,North,6,0.0,0.0,70,0.00,,CLR,0.00,VWS V14.00,2013-06-14 08:02:00,
2013-06-14 01:07:00,59.5,49.7,29.90,North,6,0.0,0.0,70,0.00,,CLR,0.00,VWS V14.00,2013-06-14 08:07:00,
2013-06-14 01:12:00,59.7,50.3,29.90,North,6,0.0,0.0,71,0.00,,CLR,0.00,VWS V14.00,2013-06-14 08:12:00,
2013-06-14 01:17:00,59.3,49.5,29.90,North,6,0.0,0.0,70,0.00,,CLR,0.00,VWS V14.00,2013-06-14 08:17:00,
2013-06-14 01:22:00,59.5,49.7,29.90,North,6,0.0,0.0,70,0.00,,CLR,0.00,VWS V14.00,2013-06-14 08:22:00,
2013-06-14 01:27:00,59.1,49.7,29.89,North,6,0.0,0.0,71,0.00,,CLR,0.00,VWS V14.00,2013-06-14 08:27:00,
2013-06-14 01:30:00,59.2,49.8,29.88,North,6,0.0,0.0,71,0.00,,CLR,0.00,VWS V14.00,2013-06-14 08:30:00,
2013-06-14 01:32:00,59.3,49.9,29.89,North,6,0.0,0.0,71,0.00,,CLR,0.00,VWS V14.00,2013-06-14 08:32:00,
2013-06-14 01:37:00,58.9,49.5,29.89,North,6,0.0,1.0,71,0.00,,CLR,0.00,VWS V14.00,2013-06-14 08:37:00,
2013-06-14 01:42:00,58.9,49.5,29.88,North,6,0.0,1.0,71,0.00,,CLR,0.00,VWS V14.00,2013-06-14 08:42:00,
2013-06-14 01:47:00,58.6,49.6,29.89,North,6,0.0,1.0,72,0.00,,CLR,0.00,VWS V14.00,2013-06-14 08:47:00,
2013-06-14 01:52:00,58.6,49.6,29.89,North,6,0.0,1.0,72,0.00,,CLR,0.00,VWS V14.00,2013-06-14 08:52:00,
2013-06-14 01:57:00,58.4,49.4,29.88,North,6,0.0,1.0,72,0.00,,CLR,0.00,VWS V14.00,2013-06-14 08:57:00,
2013-06-14 02:00:00,58.4,49.4,29.88,North,6,0.0,1.0,72,0.00,,CLR,0.00,VWS V14.00,2013-06-14 09:00:00,
2013-06-14 02:02:00,58.4,49.4,29.88,North,6,0.0,0.0,72,0.00,,CLR,0.00,VWS V14.00,2013-06-14 09:02:00,
2013-06-14 02:07:00,58.1,49.5,29.88,North,6,0.0,0.0,73,0.00,,CLR,0.00,VWS V14.00,2013-06-14 09:07:00,
2013-06-14 02:12:00,57.9,48.9,29.88,North,6,0.0,0.0,72,0.00,,CLR,0.00,VWS V14.00,2013-06-14 09:12:00,
2013-06-14 02:17:00,58.1,49.1,29.88,North,6,0.0,0.0,72,0.00,,CLR,0.00,VWS V14.00,2013-06-14 09:17:00,
2013-06-14 02:22:00,57.8,48.8,29.88,North,6,0.0,0.0,72,0.00,,CLR,0.00,VWS V14.00,2013-06-14 09:22:00,
2013-06-14 02:27:00,57.6,49.0,29.88,North,6,0.0,0.0,73,0.00,,CLR,0.00,VWS V14.00,2013-06-14 09:27:00,
2013-06-14 02:30:00,57.8,49.2,29.88,North,6,0.0,0.0,73,0.00,,CLR,0.00,VWS V14.00,2013-06-14 09:30:00,
2013-06-14 02:32:00,57.6,48.7,29.88,North,6,0.0,0.0,72,0.00,,CLR,0.00,VWS V14.00,2013-06-14 09:32:00,
2013-06-14 02:37:00,57.5,48.9,29.88,North,6,0.0,0.0,73,0.00,,CLR,0.00,VWS V14.00,2013-06-14 09:37:00,
2013-06-14 02:42:00,57.5,48.9,29.88,North,6,0.0,0.0,73,0.00,,CLR,0.00,VWS V14.00,2013-06-14 09:42:00,
2013-06-14 02:47:00,57.4,48.8,29.87,North,6,0.0,0.0,73,0.00,,CLR,0.00,VWS V14.00,2013-06-14 09:47:00,
2013-06-14 02:52:00,57.3,48.7,29.88,North,6,0.0,0.0,73,0.00,,CLR,0.00,VWS V14.00,2013-06-14 09:52:00,
2013-06-14 02:57:00,57.3,49.1,29.88,North,6,0.0,0.0,74,0.00,,CLR,0.00,VWS V14.00,2013-06-14 09:57:00,
2013-06-14 03:00:00,57.1,48.9,29.88,North,6,0.0,0.0,74,0.00,,CLR,0.00,VWS V14.00,2013-06-14 10:00:00,
2013-06-14 03:02:00,57.0,48.8,29.88,North,6,0.0,0.0,74,0.00,,CLR,0.00,VWS V14.00,2013-06-14 10:02:00,
2013-06-14 03:07:00,57.0,48.8,29.88,North,6,0.0,0.0,74,0.00,,CLR,0.00,VWS V14.00,2013-06-14 10:07:00,
2013-06-14 03:12:00,57.0,48.8,29.87,North,6,0.0,0.0,74,0.00,,CLR,0.00,VWS V14.00,2013-06-14 10:12:00,
2013-06-14 03:17:00,56.9,48.7,29.87,North,6,0.0,0.0,74,0.00,,CLR,0.00,VWS V14.00,2013-06-14 10:17:00,
2013-06-14 03:22:00,56.7,48.5,29.87,North,6,0.0,0.0,74,0.00,,CLR,0.00,VWS V14.00,2013-06-14 10:22:00,
2013-06-14 03:27:00,56.6,49.1,29.87,North,6,0.0,0.0,76,0.00,,CLR,0.00,VWS V14.00,2013-06-14 10:27:00,
2013-06-14 03:30:00,56.6,49.1,29.87,North,6,0.0,0.0,76,0.00,,CLR,0.00,VWS V14.00,2013-06-14 10:30:00,
2013-06-14 03:32:00,56.4,48.9,29.87,North,6,0.0,0.0,76,0.00,,CLR,0.00,VWS V14.00,2013-06-14 10:32:00,
2013-06-14 03:37:00,56.4,48.9,29.87,North,6,0.0,0.0,76,0.00,,CLR,0.00,VWS V14.00,2013-06-14 10:37:00,
2013-06-14 03:42:00,56.2,48.8,29.87,North,6,0.0,0.0,76,0.00,,CLR,0.00,VWS V14.00,2013-06-14 10:42:00,
2013-06-14 03:47:00,56.1,48.7,29.87,North,6,0.0,0.0,76,0.00,,CLR,0.00,VWS V14.00,2013-06-14 10:47:00,
2013-06-14 03:52:00,56.1,49.0,29.86,North,6,0.0,0.0,77,0.00,,CLR,0.00,VWS V14.00,2013-06-14 10:52:00,
2013-06-14 03:57:00,55.8,48.7,29.87,North,6,0.0,0.0,77,0.00,,CLR,0.00,VWS V14.00,2013-06-14 10:57:00,
2013-06-14 04:00:00,55.6,48.9,29.86,North,6,0.0,0.0,78,0.00,,CLR,0.00,VWS V14.00,2013-06-14 11:00:00,
2013-06-14 04:02:00,55.8,48.7,29.86,North,6,0.0,0.0,77,0.00,,CLR,0.00,VWS V14.00,2013-06-14 11:02:00,
2013-06-14 04:07:00,55.5,48.8,29.86,North,6,0.0,0.0,78,0.00,,CLR,0.00,VWS V14.00,2013-06-14 11:07:00,
2013-06-14 04:12:00,55.4,48.7,29.86,North,6,0.0,0.0,78,0.00,,CLR,0.00,VWS V14.00,2013-06-14 11:12:00,
2013-06-14 04:17:00,55.3,48.9,29.85,North,6,0.0,0.0,79,0.00,,CLR,0.00,VWS V14.00,2013-06-14 11:17:00,
2013-06-14 04:22:00,55.4,49.0,29.86,North,6,0.0,0.0,79,0.00,,CLR,0.00,VWS V14.00,2013-06-14 11:22:00,
2013-06-14 04:27:00,55.4,49.0,29.85,North,6,0.0,0.0,79,0.00,,CLR,0.00,VWS V14.00,2013-06-14 11:27:00,
2013-06-14 04:30:00,55.3,49.2,29.86,North,6,0.0,0.0,80,0.00,,CLR,0.00,VWS V14.00,2013-06-14 11:30:00,
2013-06-14 04:32:00,55.2,49.2,29.86,North,6,0.0,0.0,80,0.00,,CLR,0.00,VWS V14.00,2013-06-14 11:32:00,
2013-06-14 04:37:00,55.0,49.3,29.86,North,6,0.0,0.0,81,0.00,,CLR,0.00,VWS V14.00,2013-06-14 11:37:00,
2013-06-14 04:42:00,55.1,49.0,29.86,North,6,0.0,0.0,80,0.00,,CLR,0.00,VWS V14.00,2013-06-14 11:42:00,
2013-06-14 04:47:00,55.2,49.2,29.85,North,6,0.0,0.0,80,0.00,,CLR,0.00,VWS V14.00,2013-06-14 11:47:00,
2013-06-14 04:52:00,54.9,48.9,29.85,North,6,0.0,0.0,80,0.00,,CLR,0.00,VWS V14.00,2013-06-14 11:52:00,
2013-06-14 04:57:00,54.9,48.9,29.86,North,6,0.0,0.0,80,0.00,,CLR,0.00,VWS V14.00,2013-06-14 11:57:00,
2013-06-14 05:00:00,55.0,49.0,29.86,North,6,0.0,0.0,80,0.00,,CLR,0.00,VWS V14.00,2013-06-14 12:00:00,
2013-06-14 05:02:00,54.9,48.9,29.85,North,6,0.0,0.0,80,0.00,,CLR,0.00,VWS V14.00,2013-06-14 12:02:00,
2013-06-14 05:07:00,54.6,48.6,29.86,North,6,0.0,0.0,80,0.00,,CLR,0.00,VWS V14.00,2013-06-14 12:07:00,
2013-06-14 05:12:00,54.6,48.6,29.86,North,6,0.0,0.0,80,0.00,,CLR,0.00,VWS V14.00,2013-06-14 12:12:00,
2013-06-14 05:17:00,54.5,48.5,29.86,North,6,0.0,0.0,80,0.00,,CLR,0.00,VWS V14.00,2013-06-14 12:17:00,
2013-06-14 05:22:00,54.3,48.6,29.86,North,6,0.0,0.0,81,0.00,,CLR,0.00,VWS V14.00,2013-06-14 12:22:00,
2013-06-14 05:27:00,54.3,48.6,29.86,North,6,0.0,0.0,81,0.00,,CLR,0.00,VWS V14.00,2013-06-14 12:27:00,
2013-06-14 05:30:00,54.2,48.5,29.86,North,6,0.0,0.0,81,0.00,,CLR,0.00,VWS V14.00,2013-06-14 12:30:00,
2013-06-14 05:32:00,54.3,48.6,29.86,North,6,0.0,0.0,81,0.00,,CLR,0.00,VWS V14.00,2013-06-14 12:32:00,
2013-06-14 05:37:00,54.1,48.7,29.85,North,6,0.0,0.0,82,0.00,,CLR,0.00,VWS V14.00,2013-06-14 12:37:00,
2013-06-14 05:42:00,54.1,49.1,29.86,North,6,0.0,0.0,83,0.00,,CLR,0.00,VWS V14.00,2013-06-14 12:42:00,
2013-06-14 05:47:00,53.8,49.1,29.86,North,6,0.0,0.0,84,0.00,,CLR,0.00,VWS V14.00,2013-06-14 12:47:00,
2013-06-14 05:52:00,53.7,49.0,29.86,North,6,0.0,0.0,84,0.00,,CLR,0.00,VWS V14.00,2013-06-14 12:52:00,
2013-06-14 05:57:00,53.8,49.4,29.86,North,6,0.0,0.0,85,0.00,,CLR,0.00,VWS V14.00,2013-06-14 12:57:00,
2013-06-14 06:00:00,53.8,49.4,29.86,North,6,0.0,0.0,85,0.00,,CLR,0.00,VWS V14.00,2013-06-14 13:00:00,
2013-06-14 06:02:00,53.6,49.2,29.86,North,6,0.0,0.0,85,0.00,,CLR,0.00,VWS V14.00,2013-06-14 13:02:00,
2013-06-14 06:07:00,53.7,49.3,29.86,North,6,0.0,0.0,85,0.00,,CLR,0.00,VWS V14.00,2013-06-14 13:07:00,
2013-06-14 06:12:00,53.7,49.3,29.86,North,6,0.0,0.0,85,0.00,,CLR,0.00,VWS V14.00,2013-06-14 13:12:00,
2013-06-14 06:17:00,53.7,49.3,29.86,North,6,0.0,0.0,85,0.00,,CLR,0.00,VWS V14.00,2013-06-14 13:17:00,
2013-06-14 06:22:00,53.4,49.0,29.86,North,6,0.0,0.0,85,0.00,,CLR,0.00,VWS V14.00,2013-06-14 13:22:00,
2013-06-14 06:27:00,53.6,49.2,29.86,North,6,0.0,0.0,85,0.00,,CLR,0.00,VWS V14.00,2013-06-14 13:27:00,
2013-06-14 06:30:00,53.4,49.0,29.86,North,6,0.0,0.0,85,0.00,,CLR,0.00,VWS V14.00,2013-06-14 13:30:00,
2013-06-14 06:32:00,53.5,49.4,29.86,North,6,0.0,0.0,86,0.00,,CLR,0.00,VWS V14.00,2013-06-14 13:32:00,
2013-06-14 06:37:00,53.6,49.2,29.86,North,6,0.0,0.0,85,0.00,,CLR,0.00,VWS V14.00,2013-06-14 13:37:00,
2013-06-14 06:42:00,53.6,49.2,29.86,North,6,0.0,0.0,85,0.00,,CLR,0.00,VWS V14.00,2013-06-14 13:42:00,
2013-06-14 06:47:00,53.6,49.2,29.86,North,6,0.0,0.0,85,0.00,,CLR,0.00,VWS V14.00,2013-06-14 13:47:00,
2013-06-14 06:52:00,53.6,49.2,29.86,North,6,0.0,0.0,85,0.00,,CLR,0.00,VWS V14.00,2013-06-14 13:52:00,
2013-06-14 06:57:00,53.7,49.6,29.86,North,6,0.0,0.0,86,0.00,,CLR,0.00,VWS V14.00,2013-06-14 13:57:00,
2013-06-14 07:00:00,53.8,49.7,29.86,North,6,0.0,0.0,86,0.00,,CLR,0.00,VWS V14.00,2013-06-14 14:00:00,
2013-06-14 07:02:00,54.0,49.6,29.86,North,6,0.0,0.0,85,0.00,,CLR,0.00,VWS V14.00,2013-06-14 14:02:00,
2013-06-14 07:07:00,54.0,49.6,29.86,North,6,0.0,0.0,85,0.00,,CLR,0.00,VWS V14.00,2013-06-14 14:07:00,
2013-06-14 07:12:00,54.4,49.7,29.86,North,6,0.0,0.0,84,0.00,,CLR,0.00,VWS V14.00,2013-06-14 14:12:00,
2013-06-14 07:17:00,54.4,49.7,29.85,North,6,0.0,0.0,84,0.00,,CLR,0.00,VWS V14.00,2013-06-14 14:17:00,
2013-06-14 07:22:00,54.8,50.1,29.86,North,6,0.0,0.0,84,0.00,,CLR,0.00,VWS V14.00,2013-06-14 14:22:00,
2013-06-14 07:27:00,55.0,50.3,29.85,North,6,0.0,0.0,84,0.00,,CLR,0.00,VWS V14.00,2013-06-14 14:27:00,
2013-06-14 07:30:00,54.9,49.8,29.85,North,6,0.0,0.0,83,0.00,,CLR,0.00,VWS V14.00,2013-06-14 14:30:00,
2013-06-14 07:32:00,55.1,50.0,29.86,North,6,0.0,0.0,83,0.00,,CLR,0.00,VWS V14.00,2013-06-14 14:32:00,
2013-06-14 07:37:00,55.4,50.0,29.85,North,6,0.0,0.0,82,0.00,,CLR,0.00,VWS V14.00,2013-06-14 14:37:00,
2013-06-14 07:42:00,55.8,50.4,29.86,North,6,0.0,0.0,82,0.00,,CLR,0.00,VWS V14.00,2013-06-14 14:42:00,
2013-06-14 07:47:00,55.9,50.2,29.86,North,6,0.0,0.0,81,0.00,,CLR,0.00,VWS V14.00,2013-06-14 14:47:00,
2013-06-14 07:52:00,56.4,50.7,29.86,North,6,0.0,0.0,81,0.00,,CLR,0.00,VWS V14.00,2013-06-14 14:52:00,
2013-06-14 07:57:00,56.6,50.5,29.86,North,6,0.0,0.0,80,0.00,,CLR,0.00,VWS V14.00,2013-06-14 14:57:00,
2013-06-14 08:00:00,56.9,50.8,29.85,North,6,0.0,0.0,80,0.00,,CLR,0.00,VWS V14.00,2013-06-14 15:00:00,
2013-06-14 08:02:00,57.3,50.8,29.85,North,6,0.0,0.0,79,0.00,,CLR,0.00,VWS V14.00,2013-06-14 15:02:00,
2013-06-14 08:07:00,57.6,50.8,29.86,North,6,0.0,0.0,78,0.00,,CLR,0.00,VWS V14.00,2013-06-14 15:07:00,
2013-06-14 08:12:00,57.8,50.7,29.86,North,6,0.0,1.0,77,0.00,,CLR,0.00,VWS V14.00,2013-06-14 15:12:00,
2013-06-14 08:17:00,58.3,50.8,29.85,North,6,0.0,1.0,76,0.00,,CLR,0.00,VWS V14.00,2013-06-14 15:17:00,
2013-06-14 08:22:00,59.1,51.2,29.85,North,6,0.0,1.0,75,0.00,,CLR,0.00,VWS V14.00,2013-06-14 15:22:00,
2013-06-14 08:27:00,59.8,51.9,29.85,North,6,0.0,1.0,75,0.00,,CLR,0.00,VWS V14.00,2013-06-14 15:27:00,
2013-06-14 08:30:00,60.0,52.1,29.85,North,6,0.0,1.0,75,0.00,,CLR,0.00,VWS V14.00,2013-06-14 15:30:00,
2013-06-14 08:32:00,60.4,52.1,29.85,North,6,0.0,0.0,74,0.00,,CLR,0.00,VWS V14.00,2013-06-14 15:32:00,
2013-06-14 08:37:00,61.0,51.5,29.85,North,6,0.0,1.0,71,0.00,,CLR,0.00,VWS V14.00,2013-06-14 15:37:00,
2013-06-14 08:42:00,61.6,51.3,29.85,North,6,0.0,1.0,69,0.00,,CLR,0.00,VWS V14.00,2013-06-14 15:42:00,
2013-06-14 08:47:00,62.0,51.7,29.85,North,6,0.0,1.0,69,0.00,,CLR,0.00,VWS V14.00,2013-06-14 15:47:00,
2013-06-14 08:52:00,62.6,51.1,29.86,North,6,0.0,1.0,66,0.00,,CLR,0.00,VWS V14.00,2013-06-14 15:52:00,
2013-06-14 08:57:00,63.2,51.2,29.85,North,6,0.0,1.0,65,0.00,,CLR,0.00,VWS V14.00,2013-06-14 15:57:00,
2013-06-14 09:00:00,63.4,51.4,29.86,North,6,0.0,1.0,65,0.00,,CLR,0.00,VWS V14.00,2013-06-14 16:00:00,
2013-06-14 09:02:00,63.7,51.3,29.85,North,6,0.0,0.0,64,0.00,,CLR,0.00,VWS V14.00,2013-06-14 16:02:00,
2013-06-14 09:07:00,64.6,51.7,29.85,North,6,0.0,0.0,63,0.00,,CLR,0.00,VWS V14.00,2013-06-14 16:07:00,
2013-06-14 09:12:00,65.0,52.1,29.85,North,6,0.0,0.0,63,0.00,,CLR,0.00,VWS V14.00,2013-06-14 16:12:00,
2013-06-14 09:17:00,65.9,50.7,29.85,North,6,0.0,0.0,58,0.00,,CLR,0.00,VWS V14.00,2013-06-14 16:17:00,
2013-06-14 09:22:00,66.4,51.7,29.85,North,6,0.0,0.0,59,0.00,,CLR,0.00,VWS V14.00,2013-06-14 16:22:00,
2013-06-14 09:27:00,66.8,49.1,29.85,North,6,0.0,0.0,53,0.00,,CLR,0.00,VWS V14.00,2013-06-14 16:27:00,
2013-06-14 09:30:00,67.1,47.9,29.85,North,6,0.0,0.0,50,0.00,,CLR,0.00,VWS V14.00,2013-06-14 16:30:00,
2013-06-14 09:32:00,67.7,48.9,29.85,North,6,0.0,0.0,51,0.00,,CLR,0.00,VWS V14.00,2013-06-14 16:32:00,
2013-06-14 09:37:00,68.1,48.2,29.85,North,2,0.0,0.0,49,0.00,,CLR,0.00,VWS V14.00,2013-06-14 16:37:00,
2013-06-14 09:42:00,68.6,48.7,29.84,North,4,0.0,1.0,49,0.00,,CLR,0.00,VWS V14.00,2013-06-14 16:42:00,
2013-06-14 09:47:00,69.0,49.1,29.85,North,8,0.0,1.0,49,0.00,,CLR,0.00,VWS V14.00,2013-06-14 16:47:00,
2013-06-14 09:52:00,69.8,48.7,29.85,North,7,0.0,2.0,47,0.00,,CLR,0.00,VWS V14.00,2013-06-14 16:52:00,
2013-06-14 09:57:00,70.5,48.8,29.84,North,8,0.0,2.0,46,0.00,,CLR,0.00,VWS V14.00,2013-06-14 16:57:00,
2013-06-14 10:00:00,70.6,48.2,29.85,North,8,0.0,2.0,45,0.00,,CLR,0.00,VWS V14.00,2013-06-14 17:00:00,
2013-06-14 10:02:00,70.8,47.8,29.85,North,7,0.0,1.0,44,0.00,,CLR,0.00,VWS V14.00,2013-06-14 17:02:00,
2013-06-14 10:07:00,71.5,47.8,29.84,North,0,0.0,2.0,43,0.00,,CLR,0.00,VWS V14.00,2013-06-14 17:07:00,
2013-06-14 10:12:00,71.8,48.1,29.84,North,0,0.0,2.0,43,0.00,,CLR,0.00,VWS V14.00,2013-06-14 17:12:00,
2013-06-14 10:17:00,72.2,47.2,29.84,SSW,204,0.0,2.0,41,0.00,,CLR,0.00,VWS V14.00,2013-06-14 17:17:00,
2013-06-14 10:22:00,72.6,46.9,29.84,SSW,195,0.0,2.0,40,0.00,,CLR,0.00,VWS V14.00,2013-06-14 17:22:00,
2013-06-14 10:27:00,73.1,47.4,29.84,South,180,0.0,2.0,40,0.00,,CLR,0.00,VWS V14.00,2013-06-14 17:27:00,
2013-06-14 10:30:00,73.3,48.2,29.84,South,180,0.0,2.0,41,0.00,,CLR,0.00,VWS V14.00,2013-06-14 17:30:00,
2013-06-14 10:32:00,73.5,47.7,29.84,South,180,0.0,1.0,40,0.00,,CLR,0.00,VWS V14.00,2013-06-14 17:32:00,
2013-06-14 10:37:00,73.9,46.0,29.84,South,173,0.0,1.0,37,0.00,,CLR,0.00,VWS V14.00,2013-06-14 17:37:00,
2013-06-14 10:42:00,74.3,44.1,29.84,South,174,0.0,3.0,34,0.00,,CLR,0.00,VWS V14.00,2013-06-14 17:42:00,
2013-06-14 10:47:00,74.9,44.7,29.84,SSE,168,0.0,3.0,34,0.00,,FEW170,0.00,VWS V14.00,2013-06-14 17:47:00,
2013-06-14 10:52:00,75.2,44.9,29.84,SSE,157,0.0,3.0,34,0.00,,FEW170,0.00,VWS V14.00,2013-06-14 17:52:00,
2013-06-14 10:57:00,75.6,47.5,29.84,SSW,199,1.0,3.0,37,0.00,,FEW170,0.00,VWS V14.00,2013-06-14 17:57:00,
2013-06-14 11:00:00,75.7,46.1,29.84,NW,316,0.0,3.0,35,0.00,,CLR,0.00,VWS V14.00,2013-06-14 18:00:00,
2013-06-14 11:02:00,75.9,46.3,29.83,SW,223,0.0,2.0,35,0.00,,FEW170,0.00,VWS V14.00,2013-06-14 18:02:00,
2013-06-14 11:07:00,76.5,46.1,29.83,South,171,0.0,3.0,34,0.00,,FEW170,0.00,VWS V14.00,2013-06-14 18:07:00,
2013-06-14 11:16:00,74.4,46.5,29.83,South,180,0.0,4.0,37,0.00,,FEW170,0.00,VWS V14.00,2013-06-14 18:16:00,
2013-06-14 11:21:00,77.7,47.1,29.83,North,359,0.0,4.0,34,0.00,,FEW170,0.00,VWS V14.00,2013-06-14 18:21:00,
2013-06-14 11:26:00,78.0,46.6,29.83,North,356,0.0,4.0,33,0.00,,FEW170,0.00,VWS V14.00,2013-06-14 18:26:00,
2013-06-14 11:30:00,75.2,49.9,29.98,SSW,202,0.0,3.0,41,0.00,,CLR,0.00,VWS V14.00,2013-06-14 18:30:00,
2013-06-14 11:31:00,78.3,47.7,29.83,North,352,0.0,4.0,34,0.00,,FEW170,0.00,VWS V14.00,2013-06-14 18:31:00,
2013-06-14 11:36:00,78.6,44.6,29.83,SSW,195,0.0,4.0,30,0.00,,FEW170,0.00,VWS V14.00,2013-06-14 18:36:00,
2013-06-14 11:41:00,78.7,45.6,29.83,SW,228,0.0,4.0,31,0.00,,FEW170,0.00,VWS V14.00,2013-06-14 18:41:00,
2013-06-14 11:46:00,79.4,47.0,29.83,SSW,207,0.0,4.0,32,0.00,,CLR,0.00,VWS V14.00,2013-06-14 18:46:00,
2013-06-14 11:51:00,79.6,45.5,29.83,SW,221,0.0,4.0,30,0.00,,CLR,0.00,VWS V14.00,2013-06-14 18:51:00,
2013-06-14 11:56:00,79.9,44.8,29.83,SSW,197,0.0,4.0,29,0.00,,CLR,0.00,VWS V14.00,2013-06-14 18:56:00,
2013-06-14 12:00:00,77.9,51.0,29.98,North,0,0.0,3.0,39,0.00,,CLR,0.00,VWS V14.00,2013-06-14 19:00:00,
2013-06-14 12:01:00,80.1,44.1,29.83,WSW,247,1.0,4.0,28,0.00,,CLR,0.00,VWS V14.00,2013-06-14 19:01:00,
2013-06-14 12:06:00,80.5,44.4,29.83,WNW,286,0.0,4.0,28,0.00,,CLR,0.00,VWS V14.00,2013-06-14 19:06:00,
2013-06-14 12:11:00,80.9,44.8,29.83,NNW,344,0.0,4.0,28,0.00,,CLR,0.00,VWS V14.00,2013-06-14 19:11:00,
2013-06-14 12:16:00,81.6,47.2,29.82,NE,56,0.0,4.0,30,0.00,,CLR,0.00,VWS V14.00,2013-06-14 19:16:00,
2013-06-14 12:21:00,82.0,47.5,29.82,NNE,21,0.0,4.0,30,0.00,,CLR,0.00,VWS V14.00,2013-06-14 19:21:00,
2013-06-14 12:26:00,82.1,46.7,29.82,NNE,21,0.0,4.0,29,0.00,,CLR,0.00,VWS V14.00,2013-06-14 19:26:00,
2013-06-14 12:30:00,80.5,51.1,29.97,North,0,0.0,5.0,36,0.00,,CLR,0.00,VWS V14.00,2013-06-14 19:30:00,
2013-06-14 12:31:00,82.8,48.2,29.82,NNE,21,0.0,4.0,30,0.00,,CLR,0.00,VWS V14.00,2013-06-14 19:31:00,
2013-06-14 12:36:00,83.7,46.2,29.82,WNW,283,0.0,4.0,27,0.00,,CLR,0.00,VWS V14.00,2013-06-14 19:36:00,
2013-06-14 12:41:00,83.7,46.2,29.82,West,267,0.0,4.0,27,0.00,,CLR,0.00,VWS V14.00,2013-06-14 19:41:00,
2013-06-14 12:46:00,84.2,46.6,29.81,WSW,241,0.0,4.0,27,0.00,,SCT180,0.00,VWS V14.00,2013-06-14 19:46:00,
2013-06-14 12:51:00,84.9,46.2,29.82,SSW,193,1.0,4.0,26,0.00,,SCT180,0.00,VWS V14.00,2013-06-14 19:51:00,
2013-06-14 12:56:00,85.1,47.4,29.81,WSW,239,1.0,4.0,27,0.00,,SCT180,0.00,VWS V14.00,2013-06-14 19:56:00,
2013-06-14 13:00:00,82.6,53.7,29.97,North,0,0.0,6.0,37,0.00,,CLR,0.00,VWS V14.00,2013-06-14 20:00:00,
2013-06-14 13:01:00,85.3,46.6,29.81,SSW,209,0.0,4.0,26,0.00,,SCT180,0.00,VWS V14.00,2013-06-14 20:01:00,
2013-06-14 13:06:00,85.1,47.4,29.81,SW,220,0.0,4.0,27,0.00,,SCT180,0.00,VWS V14.00,2013-06-14 20:06:00,
2013-06-14 13:11:00,85.5,48.7,29.81,North,358,1.0,4.0,28,0.00,,SCT180,0.00,VWS V14.00,2013-06-14 20:11:00,
2013-06-14 13:16:00,85.6,48.8,29.81,NNW,342,1.0,4.0,28,0.00,,SCT180,0.00,VWS V14.00,2013-06-14 20:16:00,
2013-06-14 13:21:00,86.3,53.0,29.80,NNE,13,1.0,4.0,32,0.00,,SCT180,0.00,VWS V14.00,2013-06-14 20:21:00,
2013-06-14 13:26:00,86.5,53.2,29.80,NNW,334,3.0,5.0,32,0.00,,SCT180,0.00,VWS V14.00,2013-06-14 20:26:00,
2013-06-14 13:30:00,84.3,52.9,29.96,North,0,0.0,7.0,34,0.00,,CLR,0.00,VWS V14.00,2013-06-14 20:30:00,
2013-06-14 13:31:00,86.8,54.3,29.80,North,0,0.0,5.0,33,0.00,,SCT180,0.00,VWS V14.00,2013-06-14 20:31:00,
2013-06-14 13:36:00,87.5,54.0,29.80,North,354,1.0,5.0,32,0.00,,SCT180,0.00,VWS V14.00,2013-06-14 20:36:00,
2013-06-14 13:41:00,87.9,53.5,29.80,NW,313,1.0,5.0,31,0.00,,SCT180,0.00,VWS V14.00,2013-06-14 20:41:00,
2013-06-14 13:46:00,87.8,54.3,29.79,SSW,196,1.0,5.0,32,0.00,,SCT170,0.00,VWS V14.00,2013-06-14 20:46:00,
2013-06-14 13:51:00,88.1,52.8,29.80,North,0,0.0,5.0,30,0.00,,SCT170,0.00,VWS V14.00,2013-06-14 20:51:00,
2013-06-14 13:56:00,88.5,51.3,29.79,North,0,0.0,5.0,28,0.00,,SCT170,0.00,VWS V14.00,2013-06-14 20:56:00,
2013-06-14 14:00:00,85.1,52.8,29.96,North,0,0.0,5.0,33,0.00,,CLR,0.00,VWS V14.00,2013-06-14 21:00:00,
2013-06-14 14:01:00,88.9,51.6,29.79,North,11,2.0,7.0,28,0.00,,SCT170,0.00,VWS V14.00,2013-06-14 21:01:00,
2013-06-14 14:06:00,89.0,50.7,29.80,North,10,0.0,7.0,27,0.00,,SCT170,0.00,VWS V14.00,2013-06-14 21:06:00,
2013-06-14 14:11:00,89.4,51.0,29.79,NW,316,1.0,7.0,27,0.00,,SCT170,0.00,VWS V14.00,2013-06-14 21:11:00,
2013-06-14 14:16:00,89.3,51.0,29.79,North,353,0.0,7.0,27,0.00,,SCT170,0.00,VWS V14.00,2013-06-14 21:16:00,
2013-06-14 14:21:00,89.7,51.3,29.79,North,0,0.0,7.0,27,0.00,,SCT170,0.00,VWS V14.00,2013-06-14 21:21:00,
2013-06-14 14:26:00,90.0,49.5,29.79,North,359,2.0,7.0,25,0.00,,SCT170,0.00,VWS V14.00,2013-06-14 21:26:00,
2013-06-14 14:30:00,85.4,52.2,29.95,North,0,1.0,6.0,32,0.00,,CLR,0.00,VWS V14.00,2013-06-14 21:30:00,
2013-06-14 14:31:00,89.9,49.4,29.79,North,353,0.0,7.0,25,0.00,,SCT170,0.00,VWS V14.00,2013-06-14 21:31:00,
2013-06-14 14:36:00,89.9,48.3,29.78,North,355,0.0,7.0,24,0.00,,SCT170,0.00,VWS V14.00,2013-06-14 21:36:00,
2013-06-14 14:41:00,90.1,51.7,29.78,North,354,0.0,7.0,27,0.00,,SCT170,0.00,VWS V14.00,2013-06-14 21:41:00,
2013-06-14 14:46:00,90.7,51.1,29.78,NW,326,1.0,7.0,26,0.00,,CLR,0.00,VWS V14.00,2013-06-14 21:46:00,
2013-06-14 14:51:00,90.7,50.1,29.78,SSW,198,0.0,7.0,25,0.00,,CLR,0.00,VWS V14.00,2013-06-14 21:51:00,
2013-06-14 14:56:00,91.0,51.4,29.77,NW,325,1.0,7.0,26,0.00,,CLR,0.00,VWS V14.00,2013-06-14 21:56:00,
2013-06-14 15:00:00,85.1,52.0,29.94,NNW,338,1.0,6.0,32,0.00,,CLR,0.00,VWS V14.00,2013-06-14 22:00:00,
2013-06-14 15:01:00,91.0,50.3,29.78,North,1,0.0,7.0,25,0.00,,CLR,0.00,VWS V14.00,2013-06-14 22:01:00,
2013-06-14 15:06:00,90.4,50.9,29.78,SSW,204,0.0,7.0,26,0.00,,CLR,0.00,VWS V14.00,2013-06-14 22:06:00,
2013-06-14 15:11:00,90.4,50.9,29.78,SW,215,0.0,7.0,26,0.00,,CLR,0.00,VWS V14.00,2013-06-14 22:11:00,
2013-06-14 15:16:00,90.7,52.2,29.77,West,273,0.0,7.0,27,0.00,,CLR,0.00,VWS V14.00,2013-06-14 22:16:00,
2013-06-14 15:21:00,91.2,50.5,29.77,WNW,300,0.0,7.0,25,0.00,,CLR,0.00,VWS V14.00,2013-06-14 22:21:00,
2013-06-14 15:26:00,91.1,50.4,29.78,NNW,335,1.0,7.0,25,0.00,,CLR,0.00,VWS V14.00,2013-06-14 22:26:00,
2013-06-14 15:30:00,84.3,52.9,29.94,NNW,338,1.0,6.0,34,0.00,,CLR,0.00,VWS V14.00,2013-06-14 22:30:00,
2013-06-14 15:31:00,90.7,50.1,29.77,North,0,0.0,7.0,25,0.00,,CLR,0.00,VWS V14.00,2013-06-14 22:31:00,
2013-06-14 15:36:00,90.7,51.1,29.77,North,355,2.0,7.0,26,0.00,,CLR,0.00,VWS V14.00,2013-06-14 22:36:00,
2013-06-14 15:41:00,90.6,51.0,29.77,NNW,337,1.0,7.0,26,0.00,,CLR,0.00,VWS V14.00,2013-06-14 22:41:00,
2013-06-14 15:46:00,90.3,50.8,29.77,North,0,0.0,7.0,26,0.00,,SCT180,0.00,VWS V14.00,2013-06-14 22:46:00,
2013-06-14 15:51:00,90.7,51.1,29.77,North,0,0.0,7.0,26,0.00,,SCT180,0.00,VWS V14.00,2013-06-14 22:51:00,
2013-06-14 15:56:00,90.8,50.2,29.77,North,355,0.0,7.0,25,0.00,,SCT180,0.00,VWS V14.00,2013-06-14 22:56:00,
2013-06-14 16:00:00,82.9,50.0,29.93,North,0,1.0,7.0,32,0.00,,CLR,0.00,VWS V14.00,2013-06-14 23:00:00,
2013-06-14 16:01:00,90.6,48.9,29.76,North,354,0.0,7.0,24,0.00,,SCT180,0.00,VWS V14.00,2013-06-14 23:01:00,
2013-06-14 16:06:00,90.5,49.9,29.76,North,358,0.0,7.0,25,0.00,,SCT180,0.00,VWS V14.00,2013-06-14 23:06:00,
2013-06-14 16:11:00,90.2,49.7,29.76,North,3,3.0,9.0,25,0.00,,SCT180,0.00,VWS V14.00,2013-06-14 23:11:00,
2013-06-14 16:16:00,89.9,48.3,29.76,NNW,341,0.0,9.0,24,0.00,,SCT180,0.00,VWS V14.00,2013-06-14 23:16:00,
2013-06-14 16:21:00,89.4,49.0,29.76,NNW,343,2.0,9.0,25,0.00,,SCT180,0.00,VWS V14.00,2013-06-14 23:21:00,
2013-06-14 16:26:00,89.0,48.7,29.76,NNW,327,1.0,9.0,25,0.00,,SCT180,0.00,VWS V14.00,2013-06-14 23:26:00,
2013-06-14 16:30:00,81.9,50.0,29.93,North,0,1.0,8.0,33,0.00,,CLR,0.00,VWS V14.00,2013-06-14 23:30:00,
2013-06-14 16:31:00,88.9,48.6,29.76,North,357,0.0,9.0,25,0.00,,SCT180,0.00,VWS V14.00,2013-06-14 23:31:00,
2013-06-14 16:36:00,88.4,47.1,29.76,NNW,334,2.0,9.0,24,0.00,,SCT180,0.00,VWS V14.00,2013-06-14 23:36:00,
2013-06-14 16:41:00,88.1,46.8,29.75,NNE,20,0.0,9.0,24,0.00,,SCT180,0.00,VWS V14.00,2013-06-14 23:41:00,
2013-06-14 16:46:00,87.7,46.5,29.75,NE,46,0.0,9.0,24,0.00,,CLR,0.00,VWS V14.00,2013-06-14 23:46:00,
2013-06-14 16:51:00,87.4,47.3,29.75,NW,304,0.0,9.0,25,0.00,,CLR,0.00,VWS V14.00,2013-06-14 23:51:00,
2013-06-14 16:56:00,87.4,47.3,29.75,North,359,0.0,9.0,25,0.00,,CLR,0.00,VWS V14.00,2013-06-14 23:56:00,
2013-06-14 17:00:00,81.5,49.7,29.92,West,270,0.0,4.0,33,0.00,,CLR,0.00,VWS V14.00,2013-06-15 00:00:00,
2013-06-14 17:01:00,87.4,47.3,29.75,West,274,1.0,9.0,25,0.00,,CLR,0.00,VWS V14.00,2013-06-15 00:01:00,
2013-06-14 17:06:00,87.2,47.1,29.75,NNW,336,0.0,9.0,25,0.00,,CLR,0.00,VWS V14.00,2013-06-15 00:06:00,
2013-06-14 17:11:00,87.3,47.2,29.76,SSE,158,0.0,9.0,25,0.00,,CLR,0.00,VWS V14.00,2013-06-15 00:11:00,
2013-06-14 17:16:00,87.1,47.0,29.75,NNW,336,0.0,9.0,25,0.00,,CLR,0.00,VWS V14.00,2013-06-15 00:16:00,
2013-06-14 17:21:00,87.1,47.0,29.74,North,354,4.0,9.0,25,0.00,,CLR,0.00,VWS V14.00,2013-06-15 00:21:00,
2013-06-14 17:26:00,86.7,47.8,29.75,North,349,0.0,9.0,26,0.00,,CLR,0.00,VWS V14.00,2013-06-15 00:26:00,
2013-06-14 17:30:00,80.7,48.1,29.92,North,0,0.0,4.0,32,0.00,,CLR,0.00,VWS V14.00,2013-06-15 00:30:00,
2013-06-14 17:31:00,85.9,47.1,29.75,ESE,104,0.0,9.0,26,0.00,,CLR,0.00,VWS V14.00,2013-06-15 00:31:00,
2013-06-14 17:36:00,85.8,48.0,29.75,NNW,348,0.0,9.0,27,0.00,,CLR,0.00,VWS V14.00,2013-06-15 00:36:00,
2013-06-14 17:41:00,85.6,46.8,29.74,SSE,159,0.0,9.0,26,0.00,,CLR,0.00,VWS V14.00,2013-06-15 00:41:00,
2013-06-14 17:46:00,85.2,46.5,29.75,North,358,0.0,9.0,26,0.00,,CLR,0.00,VWS V14.00,2013-06-15 00:46:00,
2013-06-14 17:51:00,84.8,47.1,29.75,South,183,0.0,9.0,27,0.00,,CLR,0.00,VWS V14.00,2013-06-15 00:51:00,
2013-06-14 17:56:00,84.5,46.9,29.75,South,174,0.0,9.0,27,0.00,,CLR,0.00,VWS V14.00,2013-06-15 00:56:00,
2013-06-14 18:00:00,79.6,48.0,29.91,North,0,0.0,4.0,33,0.00,,CLR,0.00,VWS V14.00,2013-06-15 01:00:00,
2013-06-14 18:01:00,84.5,47.8,29.74,South,188,0.0,9.0,28,0.00,,CLR,0.00,VWS V14.00,2013-06-15 01:01:00,
2013-06-14 18:06:00,84.3,46.7,29.74,SW,216,0.0,9.0,27,0.00,,CLR,0.00,VWS V14.00,2013-06-15 01:06:00,
2013-06-14 18:11:00,84.1,47.5,29.74,North,1,0.0,9.0,28,0.00,,CLR,0.00,VWS V14.00,2013-06-15 01:11:00,
2013-06-14 18:16:00,84.1,48.5,29.74,NW,319,0.0,9.0,29,0.00,,CLR,0.00,VWS V14.00,2013-06-15 01:16:00,
2013-06-14 18:21:00,84.0,48.4,29.74,SSW,212,0.0,9.0,29,0.00,,CLR,0.00,VWS V14.00,2013-06-15 01:21:00,
2013-06-14 18:26:00,83.6,47.1,29.74,SW,228,2.0,9.0,28,0.00,,CLR,0.00,VWS V14.00,2013-06-15 01:26:00,
2013-06-14 18:30:00,77.8,46.4,29.91,NNW,338,0.0,3.0,33,0.00,,CLR,0.00,VWS V14.00,2013-06-15 01:30:00,
2013-06-14 18:31:00,83.1,47.6,29.74,SW,218,0.0,9.0,29,0.00,,CLR,0.00,VWS V14.00,2013-06-15 01:31:00,
2013-06-14 18:36:00,82.7,48.1,29.74,SSW,205,1.0,9.0,30,0.00,,CLR,0.00,VWS V14.00,2013-06-15 01:36:00,
2013-06-14 18:41:00,82.4,47.9,29.74,WSW,251,2.0,9.0,30,0.00,,CLR,0.00,VWS V14.00,2013-06-15 01:41:00,
2013-06-14 18:46:00,82.3,47.8,29.74,North,1,1.0,9.0,30,0.00,,CLR,0.00,VWS V14.00,2013-06-15 01:46:00,
2013-06-14 18:51:00,82.0,47.5,29.74,NW,322,1.0,9.0,30,0.00,,CLR,0.00,VWS V14.00,2013-06-15 01:51:00,
2013-06-14 18:56:00,81.6,48.9,29.75,South,184,0.0,9.0,32,0.00,,CLR,0.00,VWS V14.00,2013-06-15 01:56:00,
2013-06-14 19:00:00,76.1,52.0,29.92,North,0,0.0,2.0,43,0.00,,CLR,0.00,VWS V14.00,2013-06-15 02:00:00,
2013-06-14 19:01:00,81.1,48.5,29.74,NW,323,0.0,9.0,32,0.00,,CLR,0.00,VWS V14.00,2013-06-15 02:01:00,
2013-06-14 19:06:00,80.6,48.9,29.74,NNE,32,0.0,9.0,33,0.00,,CLR,0.00,VWS V14.00,2013-06-15 02:06:00,
2013-06-14 19:11:00,80.2,48.5,29.74,NE,52,0.0,9.0,33,0.00,,CLR,0.00,VWS V14.00,2013-06-15 02:11:00,
2013-06-14 19:16:00,80.2,48.5,29.74,SSW,209,1.0,9.0,33,0.00,,CLR,0.00,VWS V14.00,2013-06-15 02:16:00,
2013-06-14 19:21:00,79.5,48.7,29.75,West,261,0.0,9.0,34,0.00,,CLR,0.00,VWS V14.00,2013-06-15 02:21:00,
2013-06-14 19:26:00,79.2,48.4,29.74,North,0,0.0,9.0,34,0.00,,CLR,0.00,VWS V14.00,2013-06-15 02:26:00,
2013-06-14 19:30:00,74.0,54.2,29.92,North,0,0.0,1.0,50,0.00,,CLR,0.00,VWS V14.00,2013-06-15 02:30:00,
2013-06-14 19:31:00,79.0,48.3,29.74,NNW,329,0.0,9.0,34,0.00,,CLR,0.00,VWS V14.00,2013-06-15 02:31:00,
2013-06-14 19:36:00,78.5,47.8,29.74,NW,320,0.0,9.0,34,0.00,,CLR,0.00,VWS V14.00,2013-06-15 02:36:00,
2013-06-14 19:41:00,78.1,48.2,29.74,ENE,57,0.0,9.0,35,0.00,,CLR,0.00,VWS V14.00,2013-06-15 02:41:00,
2013-06-14 19:46:00,78.0,49.7,29.75,NE,39,0.0,9.0,37,0.00,,CLR,0.00,VWS V14.00,2013-06-15 02:46:00,
2013-06-14 19:51:00,77.7,50.8,29.75,North,6,0.0,9.0,39,0.00,,CLR,0.00,VWS V14.00,2013-06-15 02:51:00,
2013-06-14 19:56:00,77.1,50.3,29.75,North,0,0.0,9.0,39,0.00,,CLR,0.00,VWS V14.00,2013-06-15 02:56:00,
2013-06-14 20:00:00,71.4,55.4,29.92,North,0,0.0,1.0,57,0.00,,CLR,0.00,VWS V14.00,2013-06-15 03:00:00,
2013-06-14 20:01:00,76.7,49.2,29.75,North,0,0.0,9.0,38,0.00,,CLR,0.00,VWS V14.00,2013-06-15 03:01:00,
2013-06-14 20:06:00,76.2,49.5,29.75,North,0,0.0,9.0,39,0.00,,CLR,0.00,VWS V14.00,2013-06-15 03:06:00,
2013-06-14 20:11:00,75.7,49.7,29.75,North,0,0.0,9.0,40,0.00,,CLR,0.00,VWS V14.00,2013-06-15 03:11:00,
2013-06-14 20:16:00,75.4,49.4,29.75,North,8,0.0,9.0,40,0.00,,CLR,0.00,VWS V14.00,2013-06-15 03:16:00,
2013-06-14 20:21:00,75.4,49.4,29.75,North,8,0.0,9.0,40,0.00,,CLR,0.00,VWS V14.00,2013-06-15 03:21:00,
2013-06-14 20:26:00,74.9,49.0,29.75,North,8,0.0,9.0,40,0.00,,CLR,0.00,VWS V14.00,2013-06-15 03:26:00,
2013-06-14 20:30:00,68.7,54.3,29.92,North,0,0.0,1.0,60,0.00,,CLR,0.00,VWS V14.00,2013-06-15 03:30:00,
2013-06-14 20:31:00,74.3,49.1,29.75,North,8,0.0,9.0,41,0.00,,CLR,0.00,VWS V14.00,2013-06-15 03:31:00,
2013-06-14 20:36:00,74.2,49.7,29.75,North,8,0.0,9.0,42,0.00,,CLR,0.00,VWS V14.00,2013-06-15 03:36:00,
2013-06-14 20:41:00,73.7,49.2,29.75,North,8,0.0,9.0,42,0.00,,CLR,0.00,VWS V14.00,2013-06-15 03:41:00,
2013-06-14 20:46:00,73.5,47.0,29.75,North,8,0.0,9.0,39,0.00,,CLR,0.00,VWS V14.00,2013-06-15 03:46:00,
2013-06-14 20:51:00,73.3,47.5,29.75,North,8,0.0,9.0,40,0.00,,CLR,0.00,VWS V14.00,2013-06-15 03:51:00,
2013-06-14 20:56:00,72.8,48.4,29.76,North,8,0.0,9.0,42,0.00,,CLR,0.00,VWS V14.00,2013-06-15 03:56:00,
2013-06-14 21:00:00,66.7,54.2,29.93,North,0,0.0,0.0,64,0.00,,CLR,0.00,VWS V14.00,2013-06-15 04:00:00,
2013-06-14 21:01:00,72.4,48.7,29.75,North,8,0.0,9.0,43,0.00,,CLR,0.00,VWS V14.00,2013-06-15 04:01:00,
2013-06-14 21:06:00,71.9,48.8,29.76,North,8,0.0,9.0,44,0.00,,CLR,0.00,VWS V14.00,2013-06-15 04:06:00,
2013-06-14 21:11:00,71.7,49.2,29.76,North,8,0.0,9.0,45,0.00,,CLR,0.00,VWS V14.00,2013-06-15 04:11:00,
2013-06-14 21:16:00,71.7,49.8,29.75,North,8,0.0,9.0,46,0.00,,CLR,0.00,VWS V14.00,2013-06-15 04:16:00,
2013-06-14 21:21:00,71.6,50.9,29.75,North,9,0.0,9.0,48,0.00,,CLR,0.00,VWS V14.00,2013-06-15 04:21:00,
2013-06-14 21:26:00,71.2,51.1,29.76,North,9,0.0,9.0,49,0.00,,CLR,0.00,VWS V14.00,2013-06-15 04:26:00,
2013-06-14 21:30:00,65.6,52.7,29.92,North,0,0.0,1.0,63,0.00,,CLR,0.00,VWS V14.00,2013-06-15 04:30:00,
2013-06-14 21:31:00,71.0,51.5,29.76,North,9,0.0,9.0,50,0.00,,CLR,0.00,VWS V14.00,2013-06-15 04:31:00,
2013-06-14 21:36:00,70.8,51.3,29.76,North,9,0.0,9.0,50,0.00,,CLR,0.00,VWS V14.00,2013-06-15 04:36:00,
2013-06-14 21:41:00,70.3,49.7,29.75,North,9,0.0,9.0,48,0.00,,CLR,0.00,VWS V14.00,2013-06-15 04:41:00,
2013-06-14 21:46:00,70.3,49.7,29.76,North,9,0.0,9.0,48,0.00,,CLR,0.00,VWS V14.00,2013-06-15 04:46:00,
2013-06-14 21:51:00,69.6,49.1,29.76,North,9,0.0,9.0,48,0.00,,CLR,0.00,VWS V14.00,2013-06-15 04:51:00,
2013-06-14 21:56:00,69.6,48.5,29.76,North,9,0.0,9.0,47,0.00,,CLR,0.00,VWS V14.00,2013-06-15 04:56:00,
2013-06-14 22:00:00,64.5,53.3,29.92,North,0,0.0,1.0,67,0.00,,CLR,0.00,VWS V14.00,2013-06-15 05:00:00,
2013-06-14 22:01:00,69.4,48.3,29.77,North,9,0.0,9.0,47,0.00,,CLR,0.00,VWS V14.00,2013-06-15 05:01:00,
2013-06-14 22:06:00,69.1,48.6,29.76,North,9,0.0,9.0,48,0.00,,CLR,0.00,VWS V14.00,2013-06-15 05:06:00,
2013-06-14 22:11:00,68.7,48.2,29.77,North,9,0.0,9.0,48,0.00,,CLR,0.00,VWS V14.00,2013-06-15 05:11:00,
2013-06-14 22:16:00,68.6,48.7,29.76,North,9,0.0,9.0,49,0.00,,CLR,0.00,VWS V14.00,2013-06-15 05:16:00,
2013-06-14 22:21:00,68.1,48.8,29.77,North,9,0.0,9.0,50,0.00,,CLR,0.00,VWS V14.00,2013-06-15 05:21:00,
2013-06-14 22:26:00,67.8,48.5,29.77,North,9,0.0,9.0,50,0.00,,CLR,0.00,VWS V14.00,2013-06-15 05:26:00,
2013-06-14 22:30:00,63.2,53.7,29.92,North,0,0.0,1.0,71,0.00,,CLR,0.00,VWS V14.00,2013-06-15 05:30:00,
2013-06-14 22:31:00,67.6,48.8,29.77,North,9,0.0,9.0,51,0.00,,CLR,0.00,VWS V14.00,2013-06-15 05:31:00,
2013-06-14 22:36:00,67.5,50.3,29.77,North,9,0.0,9.0,54,0.00,,CLR,0.00,VWS V14.00,2013-06-15 05:36:00,
2013-06-14 22:41:00,67.1,50.4,29.76,North,9,0.0,9.0,55,0.00,,CLR,0.00,VWS V14.00,2013-06-15 05:41:00,
2013-06-14 22:46:00,67.0,51.3,29.77,North,9,0.0,9.0,57,0.00,,CLR,0.00,VWS V14.00,2013-06-15 05:46:00,
2013-06-14 22:51:00,66.6,51.8,29.77,North,9,0.0,9.0,59,0.00,,CLR,0.00,VWS V14.00,2013-06-15 05:51:00,
2013-06-14 22:56:00,66.4,52.1,29.77,North,9,0.0,9.0,60,0.00,,CLR,0.00,VWS V14.00,2013-06-15 05:56:00,
2013-06-14 23:00:00,62.2,53.5,29.91,North,0,0.0,0.0,73,0.00,,CLR,0.00,VWS V14.00,2013-06-15 06:00:00,
2013-06-14 23:01:00,65.8,52.0,29.76,North,9,0.0,9.0,61,0.00,,CLR,0.00,VWS V14.00,2013-06-15 06:01:00,
2013-06-14 23:06:00,65.7,51.9,29.77,North,9,0.0,9.0,61,0.00,,CLR,0.00,VWS V14.00,2013-06-15 06:06:00,
2013-06-14 23:11:00,65.4,51.6,29.76,North,9,0.0,9.0,61,0.00,,CLR,0.00,VWS V14.00,2013-06-15 06:11:00,
2013-06-14 23:16:00,64.9,51.6,29.76,North,9,0.0,9.0,62,0.00,,CLR,0.00,VWS V14.00,2013-06-15 06:16:00,
2013-06-14 23:21:00,64.6,51.3,29.76,North,9,0.0,9.0,62,0.00,,CLR,0.00,VWS V14.00,2013-06-15 06:21:00,
2013-06-14 23:26:00,64.4,51.1,29.76,North,9,0.0,9.0,62,0.00,,CLR,0.00,VWS V14.00,2013-06-15 06:26:00,
2013-06-14 23:30:00,61.2,51.3,29.91,North,0,0.0,0.0,70,0.00,,CLR,0.00,VWS V14.00,2013-06-15 06:30:00,
2013-06-14 23:31:00,64.1,51.3,29.76,North,9,0.0,9.0,63,0.00,,CLR,0.00,VWS V14.00,2013-06-15 06:31:00,
2013-06-14 23:36:00,64.1,51.7,29.76,North,9,0.0,9.0,64,0.00,,CLR,0.00,VWS V14.00,2013-06-15 06:36:00,
2013-06-14 23:41:00,63.6,51.6,29.76,North,9,0.0,9.0,65,0.00,,CLR,0.00,VWS V14.00,2013-06-15 06:41:00,
2013-06-14 23:46:00,63.7,52.1,29.76,North,9,0.0,9.0,66,0.00,,CLR,0.00,VWS V14.00,2013-06-15 06:46:00,
2013-06-14 23:51:00,63.3,51.8,29.76,North,9,0.0,9.0,66,0.00,,CLR,0.00,VWS V14.00,2013-06-15 06:51:00,
2013-06-14 23:56:00,63.1,51.2,29.76,North,9,0.0,9.0,65,0.00,,CLR,0.00,VWS V14.00,2013-06-15 06:56:00,